Starlink 32236

operational
NORAD ID: 60418 Int'l Des: 2024-141 Owner: SPXS Country: US Constellation: starlink
LEOCIRCULAR

Starlink 32236について

説明を読み込み中...

リアルタイム位置

3D地球を読み込み中...

次回通過

高度履歴

Altitude vs Time

uPlot chart will show altitude changes over time

軌道要素

1 60418U 24141W 25304.77402252 -.00002933 00000-0 -86988-4 0 9996
2 60418 53.1584 121.3434 0001101 86.2373 273.8753 15.30181760 69841
Epoch: Oct 31, 2025 • Age: 16 hours

現在のステータス

高度 480.0 km
速度 7.63 km/s
衛星直下点 48.21°N, 39.69°E
打ち上げ日 Aug 10, 2024
運用期間 1.2 years
タイプ internet

技術仕様

分類 Payload
質量 730.00 kg
乾燥質量 700.00 kg
総質量 730.00 kg
長さ 0.30 m
直径 4.10 m
スパン 29.00 m
形状 Box + pan
製造者 SPXS
バスタイプ Starlink V2M
フェーズステータス In Orbit
所有者/国 SPXS/US

大規模コンステレーション

Loading constellations...